[[{"header":{"parameterUnit":"m.s-1","parameterCategory":1,"la1":30.2991,"la2":30.254,"lo1":-89.0895,"lo2":-89.0444,"dy":0.0017,"dx":0.0017,"nx":28,"ny":28,"refTime":"2025-11-17T09:00:00:Z","depth":0,"parameterNumber":2,"parameterNumberName":"U-component_of_WINDS"},"data":[0,0,0,0,0,0,0,0,0,0,0,0,0,0,0,0,0,0,0,0,0,0,0,0,0,0,0,0,0,0,0,0,0,0,0,0,0,0,0,0,0,0,0,0,0,0,0,0,0,0,0,0,0,0,0,0,0,0,-1.3634,-1.3634,0,-1.3642,-1.3642,-1.3642,-1.3621,-1.3621,-1.362,-1.3619,-1.363,-1.3631,-1.3632,0,0,0,0,0,0,0,0,0,0,0,0,0,-1.3604,-1.3604,-1.3634,-1.3634,-1.3634,-1.3642,-1.3642,-1.3642,-1.3621,-1.3621,-1.362,-1.3619,-1.363,-1.3631,-1.3632,0,0,0,0,0,0,0,0,0,0,0,0,0,-1.3615,-1.3605,-1.3634,-1.3625,-1.3624,-1.3642,-1.3642,-1.3642,-1.3622,-1.3621,-1.362,-1.3619,-1.3629,-1.3631,-1.3632,-1.3659,0,0,-1.3636,-1.3636,0,0,0,0,0,0,0,0,-1.3614,-1.3616,-1.3626,-1.3625,-1.3624,-1.3629,-1.3635,-1.3648,-1.3622,-1.3623,-1.3619,-1.3618,-1.3631,-1.3632,-1.3635,-1.366,-1.366,-1.3636,-1.3637,-1.3637,-1.3638,0,0,0,0,0,0,0,-1.3613,-1.3616,-1.3637,-1.3626,-1.3625,-1.3621,-1.3622,-1.3637,-1.3632,-1.3622,-1.3621,-1.3622,-1.363,-1.3634,-1.3636,-1.3661,-1.3636,-1.3637,-1.3638,-1.3638,-1.3709,-1.371,0,0,0,0,0,0,-1.3614,-1.3615,-1.3637,-1.3637,-1.3617,-1.3622,-1.3623,-1.3629,-1.3632,-1.3631,-1.3623,-1.3621,-1.3632,-1.3634,-1.3636,-1.3668,-1.3637,-1.3639,-1.3639,-1.3708,-1.3709,-1.371,0,0,0,0,0,0,-1.3613,-1.3616,-1.3636,-1.3626,-1.3628,-1.3624,-1.3631,-1.363,-1.3634,-1.3632,-1.3631,-1.3628,-1.3632,-1.3634,-1.3654,-1.3668,-1.3639,-1.364,-1.3707,-1.3708,-1.371,-1.3733,0,0,0,0,0,0,-1.3612,-1.3616,-1.3625,-1.3626,-1.3629,-1.3653,-1.3632,-1.363,-1.3636,-1.3633,-1.3637,-1.3636,-1.3631,-1.3652,-1.3655,-1.367,-1.3641,-1.3705,-1.3707,-1.3709,-1.3731,-1.3736,-1.3739,0,0,0,0,0,-1.3611,-1.3632,-1.3626,-1.3628,-1.364,-1.3654,-1.3655,-1.3649,-1.3637,-1.3647,-1.3646,-1.3636,-1.3667,-1.3654,-1.3657,-1.3673,-1.3704,-1.3707,-1.3709,-1.3729,-1.3735,-1.3739,0,0,0,0,0,0,-1.3634,-1.3632,-1.3625,-1.3646,-1.365,-1.365,-1.3663,-1.3654,-1.3662,-1.366,-1.3652,-1.3653,-1.3674,-1.3676,-1.3662,-1.37,-1.3684,-1.3687,-1.3698,-1.3703,-1.3707,-1.3706,-1.3643,0,0,0,0,0,-1.3641,-1.3651,-1.365,-1.3669,-1.3671,-1.3667,-1.3672,-1.3667,-1.3671,-1.3673,-1.3673,-1.3678,-1.3689,-1.3696,-1.3706,-1.3732,-1.3733,-1.3744,-1.3748,-1.3752,-1.3754,-1.3768,-1.3774,-1.3718,-1.3718,-1.3718,0,0,-1.3656,-1.3657,-1.3664,-1.3673,-1.3676,-1.3687,-1.3668,-1.3681,-1.369,-1.3675,-1.3693,-1.3694,-1.3699,-1.3722,-1.3732,-1.3724,-1.377,-1.3755,-1.3758,-1.3758,-1.3771,-1.3777,-1.3781,-1.372,-1.372,-1.3719,0,0,-1.369,-1.3691,-1.3707,-1.371,-1.3714,-1.3711,-1.3715,-1.3717,-1.3716,-1.3735,-1.3724,-1.3735,-1.3753,-1.3758,-1.3762,-1.3799,-1.379,-1.3803,-1.3823,-1.3837,-1.3842,-1.3845,-1.3858,-1.3863,-1.3806,-1.3806,-1.3806,0,-1.3709,-1.3724,-1.3717,-1.373,-1.3735,-1.3722,-1.3739,-1.3742,-1.375,-1.3754,-1.3744,-1.3768,-1.377,-1.3794,-1.3803,-1.3808,-1.3812,-1.3802,-1.3841,-1.3845,-1.3849,-1.3861,-1.3866,-1.3807,-1.3807,-1.3807,-1.3807,0,-1.3747,-1.3759,-1.3772,-1.3778,-1.3784,-1.38,-1.3795,-1.3803,-1.3797,-1.3796,-1.3815,-1.3818,-1.3829,-1.3834,-1.3829,-1.3858,-1.3852,-1.3843,-1.3826,-1.3855,-1.3867,-1.3871,-1.3809,-1.3809,-1.3808,-1.3808,0,0,-1.3794,-1.3796,-1.3801,-1.3804,-1.3808,-1.3817,-1.3832,-1.3842,-1.3848,-1.3855,-1.3867,-1.3884,-1.3875,-1.388,-1.3876,-1.3889,-1.3917,-1.3877,-1.3877,-1.3884,-1.3949,-1.3955,-1.3961,-1.3912,-1.3913,-1.3914,-1.3948,0,-1.3826,-1.3851,-1.3845,-1.387,-1.3881,-1.3869,-1.3883,-1.3887,-1.3887,-1.3897,-1.3897,-1.3908,-1.3896,-1.3899,-1.3911,-1.3911,-1.393,-1.3909,-1.3924,-1.3925,-1.3922,-1.3967,-1.3974,-1.4006,-1.3953,-1.3953,-1.3954,0,-1.3867,-1.3874,-1.3899,-1.3902,-1.3906,-1.3918,-1.3927,-1.3936,-1.3942,-1.3941,-1.3947,-1.3941,-1.3957,-1.3941,-1.3964,-1.3949,-1.3956,-1.3957,-1.3959,-1.3959,-1.394,-1.3968,-1.4016,-1.4021,-1.3961,-1.396,-1.396,0,-1.3897,-1.3913,-1.393,-1.3934,-1.3937,-1.3946,-1.3948,-1.3952,-1.3959,-1.3967,-1.3971,-1.3981,-1.3987,-1.3996,-1.3993,-1.3981,-1.4016,-1.4,-1.4016,-1.4016,-1.4023,-1.4022,-1.4072,-1.4029,-1.4029,-1.4029,-1.4028,0,-1.3934,-1.395,-1.3944,-1.3955,-1.3973,-1.3967,-1.3985,-1.3986,-1.3991,-1.4002,-1.3994,-1.4005,-1.4001,-1.4012,-1.401,-1.4029,-1.4032,-1.4032,-1.4031,-1.4032,-1.4032,-1.4035,-1.4033,-1.403,-1.403,-1.4029,-1.4029,0,-1.397,-1.3967,-1.3985,-1.3987,-1.3988,-1.4001,-1.4003,-1.4014,-1.4013,-1.4028,-1.4031,-1.403,-1.4043,-1.4042,-1.4057,-1.4056,-1.4079,-1.4076,-1.4077,-1.4076,-1.4092,-1.409,-1.4145,-1.4151,-1.4105,-1.4105,-1.4105,0,-1.3992,-1.4004,-1.4008,-1.4014,-1.4017,-1.4028,-1.4034,-1.4029,-1.4036,-1.4044,-1.4054,-1.4066,-1.4075,-1.4097,-1.4098,-1.411,-1.4107,-1.4125,-1.4108,-1.4109,-1.4106,-1.4105,-1.4106,-1.4128,-1.4128,-1.4129,-1.4129,0,-1.4033,-1.4031,-1.404,-1.4048,-1.4056,-1.4063,-1.4069,-1.4075,-1.4071,-1.408,-1.4092,-1.41,-1.4115,-1.4127,-1.4138,-1.4142,-1.4135,-1.4135,-1.4139,-1.4139,-1.4139,-1.4139,-1.4085,-1.4133,-1.4133,-1.4132,-1.4132,-1.4132,-1.4062,-1.4072,-1.4076,-1.4087,-1.4091,-1.4097,-1.4107,-1.4107,-1.4117,-1.4128,-1.4126,-1.414,-1.4147,-1.4161,-1.4166,-1.4178,-1.4171,-1.4177,-1.4179,-1.418,-1.4182,-1.4138,-1.418,-1.418,-1.418,-1.418,-1.418,0,-1.4102,-1.4104,-1.4113,-1.4122,-1.413,-1.4123,-1.413,-1.4137,-1.415,-1.4156,-1.4165,-1.418,-1.4193,-1.4196,-1.4208,-1.4217,-1.4214,-1.422,-1.4219,-1.422,-1.4187,-1.4182,-1.4222,-1.4222,-1.4222,-1.4222,-1.4222,-1.4222,-1.4123,-1.4139,-1.4138,-1.4157,-1.416,-1.4173,-1.4177,-1.4183,-1.4188,-1.4205,-1.4215,-1.4216,-1.4222,-1.4234,-1.4246,-1.4246,-1.4251,-1.4258,-1.4257,-1.4226,-1.4222,-1.4218,-1.4213,-1.4259,-1.4259,-1.4289,-1.4289,-1.4289]},{"header":{"parameterUnit":"m.s-1","parameterCategory":1,"la1":30.2991,"la2":30.254,"lo1":-89.0895,"lo2":-89.0444,"dy":0.0017,"dx":0.0017,"nx":28,"ny":28,"refTime":"2025-11-17T09:00:00:Z","depth":0,"parameterNumber":3,"parameterNumberName":"V-component_of_WINDS"},"data":[0,0,0,0,0,0,0,0,0,0,0,0,0,0,0,0,0,0,0,0,0,0,0,0,0,0,0,0,0,0,0,0,0,0,0,0,0,0,0,0,0,0,0,0,0,0,0,0,0,0,0,0,0,0,0,0,0,0,1.0058,1.0058,0,1.0034,1.0034,1.0034,1.0032,1.0033,1.0033,1.0033,1.0008,1.0007,1.0006,0,0,0,0,0,0,0,0,0,0,0,0,0,1.0102,1.0102,1.0058,1.0058,1.0057,1.0034,1.0034,1.0033,1.0032,1.0033,1.0033,1.0033,1.0008,1.0007,1.0006,0,0,0,0,0,0,0,0,0,0,0,0,0,1.0081,1.0101,1.0058,1.0054,1.0053,1.0034,1.0034,1.0033,1.0032,1.0033,1.0033,1.0033,1.0009,1.0007,1.0006,0.9989,0,0,1.0002,1.0001,0,0,0,0,0,0,0,0,1.0082,1.008,1.0055,1.0054,1.0053,1.0037,1.004,1.0018,1.0032,1.004,1.0033,1.0034,1.0017,1.0015,1.001,0.9988,0.9987,1.0001,1.0001,1.0,1.0,0,0,0,0,0,0,0,1.0084,1.0081,1.0048,1.0054,1.0054,1.0053,1.0051,1.0036,1.0026,1.0039,1.0039,1.0037,1.0017,1.0011,1.0009,0.9986,1.0001,1.0,0.9999,0.9999,0.995,0.995,0,0,0,0,0,0,1.0086,1.0082,1.0049,1.0048,1.0069,1.0052,1.0049,1.0042,1.0027,1.0025,1.0036,1.0037,1.0013,1.0011,1.0008,0.9988,1.0,0.9999,0.9998,0.9951,0.995,0.995,0,0,0,0,0,0,1.0087,1.0083,1.005,1.0065,1.0061,1.0051,1.0042,1.0041,1.0035,1.0024,1.0022,1.0032,1.0013,1.001,0.9994,0.9987,0.9998,0.9997,0.9951,0.9951,0.995,0.9947,0,0,0,0,0,0,1.0088,1.0084,1.0077,1.0065,1.006,1.0036,1.0042,1.004,1.0033,1.0033,1.002,1.0018,1.0013,0.9996,0.9993,0.9985,0.9996,0.9952,0.9951,0.995,0.9948,0.9947,0.9946,0,0,0,0,0,1.009,1.0077,1.0077,1.0073,1.0051,1.0036,1.0033,1.0028,1.0032,1.0026,1.0019,1.0018,0.9988,0.9994,0.999,0.9983,0.9952,0.9951,0.995,0.9949,0.9947,0.9946,0,0,0,0,0,0,1.0088,1.0075,1.0075,1.0057,1.0048,1.0036,1.0027,1.0027,1.0016,1.0016,1.0011,1.0008,0.9992,0.9986,0.9993,0.9966,0.9971,0.9969,0.9971,0.9969,0.9968,0.997,0.9994,0,0,0,0,0,1.0085,1.0074,1.0063,1.0049,1.0044,1.0037,1.003,1.0027,1.0017,1.0013,1.0005,0.9995,0.9984,0.9976,0.9965,0.9947,0.9945,0.994,0.9939,0.9938,0.9936,0.9928,0.9926,0.9947,0.9947,0.9947,0,0,1.008,1.0071,1.0065,1.0048,1.0041,1.0029,1.0033,1.0021,1.0012,1.0011,0.9996,0.9989,0.9978,0.9962,0.9954,0.9956,0.993,0.9937,0.9936,0.9935,0.9927,0.9925,0.9923,0.9946,0.9946,0.9946,0,0,1.0064,1.0057,1.0044,1.0037,1.0026,1.0021,1.0018,1.0006,1.0003,0.9987,0.9986,0.9976,0.9956,0.9949,0.9942,0.9925,0.9925,0.9922,0.9915,0.9907,0.9905,0.9904,0.9898,0.9896,0.992,0.992,0.992,0,1.0059,1.0042,1.0038,1.0026,1.0019,1.0018,1.0005,0.9998,0.9984,0.9979,0.9982,0.9958,0.995,0.9932,0.9928,0.9923,0.992,0.9923,0.9906,0.9904,0.9903,0.9898,0.9896,0.992,0.992,0.992,0.992,0,1.0036,1.0024,1.0016,1.0003,0.9995,0.9983,0.9977,0.9969,0.9968,0.9963,0.9948,0.9939,0.9926,0.9922,0.9919,0.9904,0.9906,0.9907,0.9912,0.9901,0.9896,0.9894,0.992,0.992,0.992,0.992,0,0,1.0017,1.0003,1.0,0.9995,0.9983,0.9974,0.9962,0.9951,0.9945,0.9935,0.9925,0.9909,0.9911,0.9904,0.9901,0.9893,0.9882,0.9896,0.9895,0.9894,0.9865,0.9864,0.9862,0.9881,0.9881,0.9881,0.9866,0,1.0001,0.998,0.9977,0.9959,0.9948,0.9948,0.9938,0.9929,0.9925,0.9916,0.991,0.9899,0.9902,0.9898,0.9891,0.9885,0.9876,0.9886,0.9873,0.9872,0.9876,0.9859,0.9858,0.9845,0.9864,0.9864,0.9864,0,0.9979,0.997,0.9951,0.9942,0.9937,0.9928,0.9918,0.9909,0.99,0.9897,0.989,0.9888,0.9876,0.9881,0.9865,0.9872,0.9867,0.9863,0.9862,0.9861,0.9867,0.9858,0.984,0.9838,0.986,0.9861,0.9861,0,0.9968,0.9951,0.9938,0.9933,0.9922,0.9916,0.9911,0.9902,0.9896,0.9887,0.9883,0.9872,0.9866,0.9858,0.9854,0.9858,0.9839,0.9843,0.9836,0.9836,0.9832,0.9832,0.9814,0.9828,0.9828,0.9828,0.9828,0,0.995,0.9939,0.9933,0.9925,0.9912,0.9909,0.9896,0.9891,0.9884,0.9875,0.9874,0.9866,0.986,0.9851,0.9848,0.9836,0.9833,0.9831,0.983,0.9831,0.9831,0.9827,0.9828,0.9828,0.9828,0.9828,0.9828,0,0.9936,0.9932,0.9917,0.9908,0.9906,0.9897,0.989,0.9882,0.9878,0.9867,0.9864,0.9857,0.9847,0.9842,0.9828,0.9826,0.9813,0.9812,0.9816,0.9815,0.9809,0.981,0.9787,0.9784,0.98,0.98,0.98,0,0.9925,0.9916,0.9907,0.9901,0.9896,0.9887,0.9881,0.9877,0.9871,0.9861,0.9854,0.9844,0.9836,0.9819,0.9813,0.9803,0.9803,0.9796,0.9801,0.9803,0.9803,0.9804,0.9804,0.9795,0.9794,0.9794,0.9794,0,0.9906,0.9905,0.9896,0.9887,0.988,0.9872,0.9865,0.986,0.9855,0.9848,0.9838,0.9832,0.9819,0.9809,0.9799,0.9794,0.9793,0.9793,0.9791,0.9792,0.9794,0.9793,0.9813,0.9793,0.9793,0.9793,0.9793,0.9793,0.9894,0.9886,0.9879,0.987,0.9864,0.9857,0.985,0.9846,0.9837,0.9827,0.9825,0.9814,0.9807,0.9793,0.9788,0.978,0.9781,0.9778,0.9778,0.9777,0.9777,0.9796,0.9778,0.9778,0.9778,0.9778,0.9778,0,0.9875,0.9871,0.9862,0.9853,0.9846,0.9846,0.9839,0.9833,0.9823,0.9816,0.9808,0.9797,0.9788,0.9782,0.9772,0.9767,0.9766,0.9764,0.9765,0.9764,0.9776,0.9779,0.9765,0.9765,0.9765,0.9765,0.9765,0.9765,0.9865,0.9853,0.9851,0.9837,0.9832,0.9822,0.9818,0.9812,0.9807,0.9794,0.9787,0.9783,0.9777,0.9767,0.9758,0.9757,0.9754,0.9752,0.975,0.9761,0.9763,0.9764,0.9767,0.9751,0.9751,0.9739,0.9739,0.9739]}]]